TimeCDT,TemperatureF,Dew PointF,Humidity,Sea Level PressureIn,VisibilityMPH,Wind Direction,Wind SpeedMPH,Gust SpeedMPH,PrecipitationIn,Events,Conditions,WindDirDegrees,DateUTC
12:58 AM,66.6,64.9,95,29.92,10.0,SSW,8.1,-,N/A,,Scattered Clouds,200,2013-04-01 05:58:00
1:58 AM,66.0,64.6,95,29.94,10.0,SSW,8.1,-,N/A,,Clear,210,2013-04-01 06:58:00
2:58 AM,65.7,64.2,95,29.94,10.0,SSW,5.8,-,N/A,,Mostly Cloudy,210,2013-04-01 07:58:00
3:58 AM,64.2,63.7,98,29.94,10.0,SW,4.6,-,N/A,,Clear,220,2013-04-01 08:58:00
4:58 AM,63.0,62.4,98,29.95,10.0,West,4.6,-,N/A,,Partly Cloudy,270,2013-04-01 09:58:00
5:08 AM,62.6,62.6,100,29.95,10.0,WNW,5.8,-,N/A,,Mostly Cloudy,300,2013-04-01 10:08:00
5:23 AM,62.6,62.6,100,29.95,10.0,WNW,4.6,-,N/A,,Scattered Clouds,300,2013-04-01 10:23:00
5:58 AM,61.5,61.2,99,29.98,10.0,West,4.6,-,N/A,,Clear,280,2013-04-01 10:58:00
6:58 AM,60.1,59.9,99,30.00,10.0,West,8.1,-,N/A,,Clear,270,2013-04-01 11:58:00
7:58 AM,61.7,58.5,89,30.02,10.0,West,8.1,-,N/A,,Clear,280,2013-04-01 12:58:00
8:55 AM,64.4,57.2,77,30.03,10.0,WNW,11.5,-,N/A,,Partly Cloudy,300,2013-04-01 13:55:00
9:55 AM,67.3,56.5,68,30.03,10.0,NNW,11.5,-,N/A,,Partly Cloudy,330,2013-04-01 14:55:00
10:55 AM,70.5,55.9,60,30.03,10.0,NW,13.8,18.4,N/A,,Partly Cloudy,320,2013-04-01 15:55:00
11:55 AM,72.1,56.1,57,30.04,10.0,NNW,12.7,18.4,N/A,,Partly Cloudy,330,2013-04-01 16:55:00
12:55 PM,73.2,56.3,55,30.04,10.0,NNW,12.7,17.3,N/A,,Partly Cloudy,340,2013-04-01 17:55:00
1:55 PM,73.2,56.3,55,30.02,10.0,NW,10.4,-,N/A,,Partly Cloudy,310,2013-04-01 18:55:00
2:55 PM,74.1,56.3,54,30.01,10.0,North,9.2,-,N/A,,Partly Cloudy,10,2013-04-01 19:55:00
3:55 PM,75.4,55.8,50,29.98,10.0,WNW,6.9,-,N/A,,Partly Cloudy,300,2013-04-01 20:55:00
4:55 PM,76.1,54.0,46,29.98,10.0,NNW,10.4,-,N/A,,Partly Cloudy,330,2013-04-01 21:55:00
5:55 PM,75.0,53.1,46,29.99,10.0,NNW,8.1,-,N/A,,Partly Cloudy,340,2013-04-01 22:55:00
6:55 PM,71.4,51.8,50,29.99,10.0,NW,6.9,-,N/A,,Clear,320,2013-04-01 23:55:00
7:55 PM,66.7,53.2,62,30.01,10.0,NW,5.8,-,N/A,,Clear,320,2013-04-02 00:55:00
8:55 PM,62.4,52.2,69,30.03,10.0,NW,3.5,-,N/A,,Clear,310,2013-04-02 01:55:00
9:55 PM,57.0,51.4,82,30.03,10.0,NNW,2.3,-,N/A,,Clear,330,2013-04-02 02:55:00
10:55 PM,54.1,50.9,89,30.04,10.0,Calm,Calm,-,N/A,,Clear,0,2013-04-02 03:55:00
11:55 PM,52.3,50.0,92,30.06,10.0,NNW,2.3,-,N/A,,Clear,340,2013-04-02 04:55:00